Location: Unspecified
(0.0000°N, 0.0000°E)
Time: 19:03:28
(UTC+00:00)

deb OV3-4 - Pass Details

Date: 14 April 2026
Orbit: 581 x 4210 km, 40.6° (Epoch: 13 May)

Event Time Altitude Azimuth Distance (km) Brightness Sun altitude
Rises 21:02:14 0° 295° (WNW) 5,329 ? -44.7°
Reaches altitude 10° 21:07:07 10° 284° (WNW) 3,683 ? -45.9°
Enters shadow 21:11:50 22° 256° (WSW) 2,279 ? -47.0°
